"Pseudo-MPEC" for P22oZts

Created 2026 Aug 9 7:35:15 UT using Find_Orb

Click here for an explanation of pseudo-MPECs

 
 Astrometry: 
     P22oZts*0C2026 08 08.53143823 07 37.745-00 14 48.73   ~88EK 20.82wXNEOCPF52
     P22oZts 0C2026 08 08.54355923 07 26.243-00 14 42.62   ~88EK 20.68wXNEOCPF52
     P22oZts 0C2026 08 08.55567423 07 14.782-00 14 36.47   ~88EK 21.01wXNEOCPF52
     P22oZts 0C2026 08 08.61114423 06 23.002-00 14 08.68   ~88H5 20.55GVNEOCPF52
     P22oZts 0C2026 08 08.61195123 06 22.281-00 14 08.10   ~88H5 21.04GVNEOCPF52
     P22oZts 1C2026 08 08.89897023 02 50.618-00 13 57.90   ~88MZ 20.3 GXNEOCP033
     P22oZts 1C2026 08 08.90027023 02 49.517-00 13 57.00   ~88MZ 20.2 GXNEOCP033
     P22oZts 1C2026 08 08.90285023 02 47.306-00 13 56.10   ~88MZ 20.1 GXNEOCP033
     P22oZts KB2026 08 09.00826423 01 21.014-00 12 23.04   ~897Z 20.6 VZNEOCPR49
     P22oZts KB2026 08 09.04069423 00 52.243-00 12 08.06   ~897Z 20.4 VZNEOCPR49
     P22oZts KB2026 08 09.07368123 00 22.944-00 11 53.63   ~897Z 20.7 VZNEOCPR49
     P22oZts KC2026 08 09.27778822 57 44.87 -00 10 20.0    ~897K 20.8 GVNEOCPH21
     P22oZts KC2026 08 09.28067722 57 42.34 -00 10 18.7    ~897K 20.9 GVNEOCPH21
     P22oZts KC2026 08 09.28385622 57 39.56 -00 10 17.3    ~897K 21.0 GVNEOCPH21

Station data:
(033) Karl Schwarzschild Observatory, Tautenburg  (N50.980139 E11.711240)
   Germany.  Observer B. Stecklum. 1.34-m f/3 Schmidt + CCD.
(F52) Pan-STARRS 2, Haleakala  (N20.707382 W156.255910)  US/Hawaii.
   Observers J. Herman, T. Lowe, P. Minguez, A. Schultz, I. Smith. Measurers
   K. Chambers, T. de Boer, J. Fairlamb, H. Gao, M. Huber, C.-C. Lin, E.
   Magnier, Y. Ramanjooloo, R. Wainscoat, R. Weryk. 1.8-m Ritchey-Chrétien +
   CCD.
(H21) Astronomical Research Observatory, Westfield  (N39.483054 W87.968270)
   US/Illinois.  Observer R. Holmes. Measurers S. Foglia, L. Buzzi, T.
   Linder, R. Holmes. 0.40-m f/5.32 astrograph + CCD.
(R49) Observatorio Villuercas-Navezuelas, Navezuelas  (N39.512739 W5.439520)
   Spain.

Orbital elements:  P22oZts
   Perihelion 2026 Apr 20.209084 +/- 0.148 TT =  5:01:04.8 (JD 2461150.709084)
Epoch 2026 Aug  9.0 TT = JDT 2461261.5   Earth MOID: 0.0066      AutoNEOCP
M 113.052792204 +/- 0.20            (J2000 ecliptic)
n   1.020415720 +/- 0.000536        Peri.  237.465557 +/- 0.18
a   0.977127618 +/- 0.000342        Node   313.737979 +/- 0.0014
e   0.12834681 +/- 0.00015          Incl.    2.887104 +/- 0.0034
P   0.966/352.791d         H 27.10  G  0.15   U  7.7
q 0.851716398 +/- 0.000338    Q 1.102538838 +/- 0.000408
From 14 observations 2026 Aug. 8-9 (18.1 hr); mean residual 0".24
Residuals in arcseconds: 
260808 F52  .25+  .02-    260808 033  .04+  .03+    260809 R49  .03+  .73-    
260808 F52  .07-  .03-    260808 033  .13+  .31+    260809 H21  .06+  .01+    
260808 F52  .30-  .00     260808 033  .04-  .03-    260809 H21  .00   .01+    
260808 F52  .12-  .08-    260809 R49  .40+  .35+    260809 H21  .01+  .01-    
260808 F52  .22+  .10+    260809 R49  .60-  .18+    

Ephemerides (geocentric):
Date (UTC) HH   RA             Dec           delta  r     elong  mag " sig PA
---- --------  ------------   ------------  ------ ------ -----  --- --------
2026 08 09 08  22 56 57.709   -00 06 45.35  .02929 1.0394 150.4 20.8 .294 168
2026 08 09 09  22 56 25.457   -00 06 27.38  .02935 1.0395 150.5 20.8 .297 171
2026 08 09 10  22 55 53.311   -00 06 09.55  .02940 1.0396 150.7 20.8 .300 175
2026 08 09 11  22 55 21.272   -00 05 51.86  .02945 1.0396 150.8 20.8 .305   0
2026 08 09 12  22 54 49.339   -00 05 34.32  .02950 1.0397 151.0 20.8 .312   4
2026 08 09 13  22 54 17.512   -00 05 16.91  .02956 1.0398 151.1 20.8 .321   9
2026 08 09 14  22 53 45.791   -00 04 59.64  .02961 1.0399 151.3 20.8 .332  14
2026 08 09 15  22 53 14.175   -00 04 42.51  .02966 1.0399 151.4 20.8 .347  19
2026 08 09 16  22 52 42.666   -00 04 25.53  .02972 1.0400 151.6 20.8 .365  24
2026 08 09 17  22 52 11.261   -00 04 08.68  .02977 1.0401 151.7 20.8 .386  29
2026 08 09 18  22 51 39.962   -00 03 51.97  .02982 1.0402 151.8 20.8 .411  34
2026 08 09 19  22 51 08.769   -00 03 35.40  .02988 1.0402 152.0 20.8 .440  38
2026 08 09 20  22 50 37.680   -00 03 18.97  .02993 1.0403 152.1 20.8 .472  42
2026 08 09 21  22 50 06.695   -00 03 02.67  .02999 1.0404 152.3 20.8 .508  45
2026 08 09 22  22 49 35.816   -00 02 46.52  .03004 1.0405 152.4 20.8 .547  49
2026 08 09 23  22 49 05.040   -00 02 30.50  .03010 1.0405 152.5 20.8 .589  52
2026 08 10 00  22 48 34.369   -00 02 14.62  .03015 1.0406 152.7 20.8 .635  54
2026 08 10 01  22 48 03.802   -00 01 58.87  .03021 1.0407 152.8 20.8 .683  57
2026 08 10 02  22 47 33.339   -00 01 43.27  .03026 1.0408 153.0 20.8 .735  59
2026 08 10 03  22 47 02.979   -00 01 27.79  .03032 1.0408 153.1 20.8 .789  61
2026 08 10 04  22 46 32.723   -00 01 12.46  .03037 1.0409 153.2 20.8 .845  63
2026 08 10 05  22 46 02.570   -00 00 57.26  .03043 1.0410 153.4 20.8 .905  65
2026 08 10 06  22 45 32.519   -00 00 42.19  .03048 1.0411 153.5 20.8 .966  66
2026 08 10 07  22 45 02.572   -00 00 27.26  .03054 1.0411 153.6 20.8 1.03  67
2026 08 10 08  22 44 32.727   -00 00 12.46  .03059 1.0412 153.8 20.8 1.10  69
2026 08 10 09  22 44 02.985   +00 00 02.20  .03065 1.0413 153.9 20.8 1.17  70
2026 08 10 10  22 43 33.345   +00 00 16.73  .03071 1.0414 154.0 20.8 1.24  71
2026 08 10 11  22 43 03.806   +00 00 31.12  .03076 1.0414 154.2 20.8 1.31  72
2026 08 10 12  22 42 34.370   +00 00 45.39  .03082 1.0415 154.3 20.8 1.39  73
2026 08 10 13  22 42 05.035   +00 00 59.52  .03088 1.0416 154.4 20.8 1.46  74
2026 08 10 14  22 41 35.801   +00 01 13.52  .03094 1.0417 154.6 20.8 1.54  74
2026 08 10 15  22 41 06.669   +00 01 27.39  .03099 1.0417 154.7 20.8 1.62  75
2026 08 10 16  22 40 37.637   +00 01 41.12  .03105 1.0418 154.8 20.8 1.71  76
2026 08 10 17  22 40 08.706   +00 01 54.73  .03111 1.0419 155.0 20.8 1.79  76
2026 08 10 18  22 39 39.876   +00 02 08.20  .03117 1.0420 155.1 20.8 1.88  77
2026 08 10 19  22 39 11.145   +00 02 21.55  .03122 1.0420 155.2 20.8 1.97  77
2026 08 10 20  22 38 42.515   +00 02 34.77  .03128 1.0421 155.3 20.8 2.06  78
2026 08 10 21  22 38 13.984   +00 02 47.85  .03134 1.0422 155.5 20.8 2.15  78
2026 08 10 22  22 37 45.553   +00 03 00.81  .03140 1.0423 155.6 20.8 2.25  79
2026 08 10 23  22 37 17.221   +00 03 13.64  .03146 1.0423 155.7 20.8 2.34  79
2026 08 11 00  22 36 48.989   +00 03 26.35  .03152 1.0424 155.8 20.8 2.44  80
2026 08 11 01  22 36 20.855   +00 03 38.92  .03157 1.0425 156.0 20.8 2.54  80
2026 08 11 02  22 35 52.820   +00 03 51.37  .03163 1.0426 156.1 20.8 2.64  80
2026 08 11 03  22 35 24.883   +00 04 03.69  .03169 1.0426 156.2 20.8 2.74  81
2026 08 11 04  22 34 57.044   +00 04 15.89  .03175 1.0427 156.3 20.8 2.85  81
2026 08 11 05  22 34 29.303   +00 04 27.96  .03181 1.0428 156.5 20.8 2.95  81
2026 08 11 06  22 34 01.660   +00 04 39.91  .03187 1.0429 156.6 20.8 3.06  82
2026 08 11 07  22 33 34.114   +00 04 51.73  .03193 1.0429 156.7 20.8 3.17  82